Regional Weather Roundup
Issued by NWS

Home | Current Version | Previous Version | Graphics & Text | Print | Product List | Glossary On
Versions: 1 2 3 4 5 6 7 8 9 10 11 12 13 14 15 16 17 18 19 20 21 22 23 24 25 26 27 28 29 30 31 32 33 34 35 36 37 38 39 40 41 42 43 44 45 46 47 48 49 50
000
ASUS43 KLMK 282002
RWRKY
KENTUCKY REGIONAL WEATHER ROUNDUP
NATIONAL WEATHER SERVICE LOUISVILLE KY
400 PM EDT MON JUL 28 2014

NOTE "FAIR" INDICATES FEW OR NO CLOUDS BELOW 12,000 FEET
WITH NO SIGNIFICANT WEATHER AND/OR OBSTRUCTIONS TO VISIBILITY.

KYZ001>023-026-027-061>063-070>075-282100-
WESTERN AND SOUTH CENTRAL KENTUCKY

CITY           SKY/WX    TMP DP  RH WIND       PRES   REMARKS
PADUCAH        PTSUNNY   82  62  50 N15G21    30.04S
HENDERSON      MOSUNNY   79  61  53 NW10G16   30.02S
OWENSBORO      PTSUNNY   77  59  53 NW10      30.02F
HOPKINSVILLE   PTSUNNY   80  59  48 N13G20    30.02S
BOWLING GREEN  PTSUNNY   79  56  45 N10       30.00S
GLASGOW        MOSUNNY   79  59  51 NW6       29.99S
$$

KYZ024-025-028>034-038-045-046-053-282100-
NORTH CENTRAL KENTUCKY

CITY           SKY/WX    TMP DP  RH WIND       PRES   REMARKS
LOUISVILLE/SDF PTSUNNY   78  59  51 N12       29.99S
LOUISVILLE/LOU PTSUNNY   77  58  51 NW8       30.00S
FORT KNOX      PTSUNNY   75  62  63 VRB7      29.99S
$$

KYZ035>037-039>044-047>052-055>060-089>105-282100-
NORTHEAST KENTUCKY

CITY           SKY/WX    TMP DP  RH WIND       PRES   REMARKS
LEXINGTON      CLOUDY    71  59  65 NW10      30.00S
COVINGTON      NOT AVBL
FRANKFORT      CLOUDY    70  59  68 NW8       30.00R
$$

KYZ054-064>069-076>088-106>120-282100-
SOUTHEAST KENTUCKY

CITY           SKY/WX    TMP DP  RH WIND       PRES   REMARKS
JACKSON        CLOUDY    71  59  65 NW8       29.98R
LONDON         MOSUNNY   78  59  51 W9        29.98S
SOMERSET       CLOUDY    77  59  53 NW8G17    29.99S
MIDDLESBORO    CLOUDY    76  62  60 NW8       29.97S
MONTICELLO     CLEAR     78  63  60 NW12      30.00S
$$




USA.gov is the U.S. government's official web portal to all federal, state and local government web resources and services.